KF5CFW Weather Reports


time (UTC)temp
C
wind
direction
speed
KPH
gust
KPH
rain 1hr
cm
rain 24hr
cm
rain mn
cm
humidity
%
barometer
mb
20260509173015 31 356 0.0 1.6 0.00 0.00 0.00 47 1009.1
20260509171513 30 359 0.0 1.6 0.00 0.00 0.00 49 1009.3
20260509170007 30 352 0.0 1.6 0.00 0.00 0.00 50 1009.5
20260509164502 29 4 0.0 1.6 0.00 0.00 0.00 50 1009.6
20260509163105 28 283 0.0 1.6 0.00 0.00 0.00 52 1009.6
20260509161554 27 360 0.0 1.6 0.00 0.00 0.00 54 1009.7
20260509160049 27 349 0.0 1.6 0.00 0.00 0.00 55 1009.6
20260509154557 26 249 0.0 1.6 0.00 0.00 0.00 55 1009.4
20260509153040 26 231 0.0 1.6 0.00 0.00 0.00 53 1009.5
20260509151535 25 232 0.0 1.6 0.00 0.00 0.00 52 1009.6
20260509150032 25 345 0.0 1.6 0.00 0.00 0.00 51 1009.7
20260509144527 24 356 0.0 1.6 0.00 0.00 0.00 48 1009.7
20260509143023 23 226 0.0 1.6 0.00 0.00 0.00 34 1009.8
20260509141518 23 352 0.0 1.6 0.00 0.00 0.00 14 1009.8
20260509140014 22 326 0.0 1.6 0.00 0.00 0.00 1 1009.7
20260509134511 21 321 0.0 1.6 0.00 0.00 0.00 1 1009.6
20260509133010 21 231 0.0 1.6 0.00 0.00 0.00 1 1009.6
20260509131510 21 348 0.0 1.6 0.00 0.00 0.00 1 1009.5
20260509130003 21 344 0.0 1.6 0.00 0.00 0.00 1 1009.5
20260509124609 20 342 0.0 0.0 0.00 0.00 0.00 1 1009.6
20260509123054 20 345 0.0 0.0 0.00 0.00 0.00 1 1009.4
20260509121616 20 342 0.0 0.0 0.00 0.00 0.00 1 1009.4
20260509120049 20 342 0.0 0.0 0.00 0.00 0.00 1 1009.2
20260509114546 20 342 0.0 0.0 0.00 0.00 0.00 1 1009.2
20260509113044 20 342 0.0 0.0 0.00 0.00 0.00 1 1008.9
20260509111536 20 342 0.0 0.0 0.00 0.00 0.00 1 1008.6
20260509110032 21 343 0.0 0.0 0.00 0.00 0.00 1 1008.4
20260509104527 21 342 0.0 0.0 0.00 0.00 0.00 1 1008.3
20260509103022 21 342 0.0 0.0 0.00 0.00 0.00 1 1008.4
20260509101523 22 343 0.0 0.0 0.00 0.00 0.00 1 1008.2
20260509100014 22 342 0.0 1.6 0.00 0.00 0.00 1 1008.5
20260509094510 22 352 0.0 1.6 0.00 0.00 0.00 1 1007.4
20260509093009 21 333 0.0 3.2 0.00 0.00 0.00 1 1006.1
20260509091505 21 204 0.0 3.2 0.00 0.00 0.00 1 1005.7
20260509090002 21 160 0.0 3.2 0.00 0.00 0.00 1 1006.1
20260509084602 21 139 0.0 3.2 0.00 0.00 0.00 1 1006.3
20260509083058 21 136 0.0 3.2 0.00 0.00 0.00 1 1006.2
20260509081547 21 148 0.0 4.8 0.00 0.00 0.00 1 1006.9
20260509080047 21 140 0.0 1.6 0.00 0.00 0.00 1 1008.1
20260509074539 21 318 0.0 1.6 0.00 0.00 0.00 1 1008.9
20260509073038 21 260 0.0 1.6 0.00 0.00 0.00 1 1009.5
20260509071531 21 259 0.0 0.0 0.00 0.00 0.00 1 1010.0
20260509070028 21 259 0.0 3.2 0.00 0.00 0.00 1 1010.6
20260509064521 21 5 0.0 0.0 0.00 0.00 0.00 1 1010.3
20260509063017 21 5 0.0 0.0 0.00 0.00 0.00 1 1010.1
20260509061519 21 5 0.0 0.0 0.00 0.00 0.00 1 1010.2
20260509060012 21 5 0.0 0.0 0.00 0.00 0.00 1 1010.5
20260509054503 21 5 0.0 0.0 0.00 0.00 0.00 1 1010.5
20260509053135 21 6 0.0 1.6 0.00 0.00 0.00 1 1010.4
20260509051555 21 98 0.0 0.0 0.00 0.00 0.00 1 1009.6
20260509050050 21 98 0.0 0.0 0.00 0.00 0.00 1 1009.6
20260509044548 21 98 0.0 0.0 0.00 0.00 0.00 1 1009.4
20260509043102 22 98 0.0 0.0 0.00 0.00 0.00 1 1009.4
20260509041556 22 99 0.0 0.0 0.00 0.00 0.00 1 1009.6
20260509040050 22 97 0.0 0.0 0.00 0.00 0.00 1 1009.9
20260509034559 22 98 0.0 0.0 0.00 0.00 0.00 1 1009.7
20260509033059 22 98 0.0 0.0 0.00 0.00 0.00 1 1009.0
20260509031605 22 98 0.0 1.6 0.00 0.00 0.00 3 1008.7
20260509030036 22 96 0.0 0.0 0.00 0.00 0.00 7 1008.6
20260509024530 22 148 0.0 0.0 0.00 0.00 0.00 8 1008.3
20260509023026 22 148 0.0 1.6 0.00 0.00 0.00 11 1008.0
20260509021522 22 148 0.0 1.6 0.00 0.00 0.00 12 1007.9
20260509020022 22 127 0.0 0.0 0.00 0.00 0.00 12 1008.1
20260509014513 22 127 0.0 0.0 0.00 0.00 0.00 12 1008.1
20260509013008 22 127 0.0 0.0 0.00 0.00 0.00 13 1008.0
20260509011504 22 127 0.0 0.0 0.00 0.00 0.00 16 1008.0
20260509010100 22 127 0.0 0.0 0.00 0.00 0.00 18 1007.6
20260509004600 22 127 0.0 1.6 0.00 0.00 0.00 22 1007.4
20260509003051 23 122 0.0 0.0 0.00 0.00 0.00 25 1007.3
20260509001546 23 124 0.0 1.6 0.00 0.00 0.00 29 1007.5
20260509000042 23 121 0.0 1.6 0.00 0.00 0.00 32 1007.4
20260508234538 23 72 0.0 0.0 0.00 0.00 0.00 34 1007.7
20260508233033 23 89 0.0 0.0 0.00 0.00 0.00 39 1007.7
20260508231529 23 84 0.0 0.0 0.00 0.00 0.00 44 1007.7
20260508230035 24 152 0.0 1.6 0.00 0.00 0.00 48 1007.7
20260508224526 24 167 0.0 1.6 0.00 0.00 0.00 50 1007.6
20260508223014 25 78 0.0 1.6 0.00 0.00 0.00 53 1007.6
20260508221525 25 162 0.0 1.6 0.00 0.00 0.00 53 1007.8
20260508220006 24 153 0.0 1.6 0.00 0.00 0.00 50 1008.0
20260508214501 23 170 0.0 1.6 0.00 0.00 0.00 52 1008.2
20260508213057 23 164 0.0 1.6 0.00 0.00 0.00 52 1008.3
20260508211553 23 142 0.0 3.2 0.00 0.00 0.00 50 1008.7
20260508210048 22 165 0.0 1.6 0.00 0.00 0.00 48 1008.9
20260508204544 21 243 0.0 1.6 0.00 0.00 0.00 39 1009.2
20260508203040 21 156 0.0 1.6 0.00 0.00 0.00 48 1008.6
20260508201535 21 157 0.0 1.6 0.00 0.00 0.00 54 1009.7
20260508200043 22 285 0.0 0.0 0.00 0.00 0.00 56 1010.5
20260508194526 22 153 0.0 1.6 0.00 0.00 0.00 55 1010.4
20260508193021 23 177 0.0 1.6 0.00 0.00 0.00 55 1010.2
20260508191519 23 154 0.0 3.2 0.00 0.00 0.00 56 1010.2
20260508190012 23 155 0.0 1.6 0.00 0.00 0.00 56 1010.5
20260508184508 23 151 0.0 1.6 0.00 0.00 0.00 56 1010.6
20260508183004 24 188 0.0 1.6 0.00 0.00 0.00 56 1010.8
20260508181600 24 153 0.0 3.2 0.00 0.00 0.00 55 1011.0
20260508180056 23 152 0.0 1.6 0.00 0.00 0.00 54 1010.9
20260508174550 23 151 0.0 0.0 0.00 0.00 0.00 54 1011.5